Wind_Speed
46 46 48 48 48 49 49 49 51 51 51 53 55 55 56 56 56 56 56 56 55 55 55 54 54 53 51 50 48 46 45 45 45 44 43 42 41 40 39 38 38 38 38
46 46 47 48 48 49 49 49 50 50 51 52 53 54 55 56 56 56 56 56 56 56 55 55 55 55 54 53 51 49 48 47 46 45 44 43 43 42 41 40 40 39 39
45 46 47 47 47 48 49 49 48 48 50 51 52 53 54 55 56 56 56 56 56 55 55 55 54 54 54 54 53 51 49 48 48 47 46 45 44 44 43 42 42 42 41
44 45 46 47 47 47 48 48 48 48 50 52 52 53 54 55 55 55 56 56 56 56 56 56 55 54 54 54 54 53 52 51 49 48 48 47 46 46 46 44 43 43 43
43 43 44 46 46 47 47 47 47 49 50 52 53 53 53 55 55 56 56 56 56 56 55 55 55 54 55 54 54 53 53 52 50 50 50 49 49 48 47 46 45 45 45
41 43 44 45 45 46 46 46 47 47 49 51 52 53 54 54 54 54 56 57 57 57 56 54 55 55 55 55 54 54 53 53 51 50 50 51 50 49 49 48 48 47 46
41 42 43 44 44 45 46 46 47 47 48 50 51 51 52 53 54 54 56 58 57 57 56 55 55 55 56 56 56 56 55 54 53 51 51 50 50 51 51 50 49 47 47
40 41 42 43 44 45 46 47 47 47 48 50 51 52 53 53 54 54 55 57 58 58 58 57 56 55 55 55 56 56 55 55 54 53 52 52 52 52 52 50 50 49 48
38 40 41 41 43 44 45 46 46 47 47 48 51 52 52 53 54 54 55 55 56 57 58 58 57 56 56 55 55 55 56 55 54 54 53 53 54 53 51 51 51 51 50
37 38 40 41 42 43 44 44 45 47 48 48 49 51 51 52 53 53 55 56 56 56 57 58 58 57 57 57 56 56 56 56 54 54 54 54 53 53 52 51 52 52 52
37 38 38 39 40 41 43 44 44 46 47 47 48 50 50 51 50 51 53 55 56 56 57 57 58 58 58 58 58 58 58 58 56 55 54 55 55 54 53 52 53 54 54
36 37 38 39 40 40 42 43 45 45 46 47 47 47 48 49 49 50 52 54 55 56 56 56 57 57 57 57 57 59 60 59 58 56 56 55 55 54 54 54 54 55 55
35 35 36 37 38 40 41 43 44 45 46 47 47 46 47 48 48 48 49 51 54 55 56 56 56 56 57 57 56 58 59 59 57 57 57 56 56 55 55 54 54 54 55
33 34 35 35 36 37 38 39 41 43 44 45 45 45 46 46 46 47 48 50 51 53 54 55 56 57 57 56 56 56 57 58 58 57 57 57 56 56 55 54 54 55 55
32 33 33 34 35 35 36 37 38 40 41 41 42 43 44 46 47 48 48 49 50 51 52 53 55 56 56 55 55 55 56 57 57 57 57 57 57 55 55 55 55 55 56
31 31 31 31 31 32 32 33 34 36 37 39 40 42 43 44 45 46 46 47 48 49 51 52 53 54 55 55 54 54 55 56 56 57 57 57 57 57 57 58 57 57 56
30 30 30 31 31 32 32 33 33 34 35 37 39 40 41 41 42 43 44 45 45 47 48 50 51 52 54 55 55 54 55 55 55 55 56 57 57 58 58 58 58 57 56
29 29 30 31 31 31 31 32 33 33 34 35 36 37 39 40 40 42 43 44 45 45 46 48 49 50 52 54 54 53 53 54 54 54 54 55 56 57 58 58 58 57 56
27 27 28 29 29 29 30 31 32 33 34 35 36 36 37 38 39 40 41 43 43 44 45 45 46 48 49 50 51 51 51 52 52 53 54 54 55 56 56 56 56 56 55
26 25 25 26 26 27 29 30 31 32 33 34 35 36 36 37 37 38 39 40 42 42 42 43 44 46 46 47 48 50 50 50 50 50 51 51 52 53 53 53 53 53 53
24 24 25 25 25 26 27 28 29 29 30 31 32 33 34 35 35 36 36 37 38 39 40 42 43 44 46 47 47 49 50 50 50 49 50 50 50 50 50 50 50 50 50
24 23 23 24 24 25 25 26 26 27 28 29 30 31 32 33 34 34 34 35 36 37 38 39 40 42 43 45 46 47 48 49 49 48 48 49 49 49 49 49 49 49 49
24 24 23 23 24 24 25 26 27 27 27 28 29 30 31 32 32 33 33 33 34 35 36 37 38 39 41 42 44 45 46 47 47 47 47 47 47 47 47 47 48 48 48
23 24 24 24 23 23 24 25 26 26 27 27 28 29 30 31 31 32 32 33 33 34 34 35 36 38 39 40 42 43 44 44 45 45 45 44 45 45 45 45 45 46 46
23 23 24 24 24 23 23 24 24 25 26 26 27 27 28 29 30 31 31 32 33 33 33 34 35 36 37 39 40 41 41 42 42 42 43 42 43 43 43 43 43 44 44
22 22 21 21 22 22 22 22 22 23 24 25 25 26 27 27 29 30 31 31 32 32 32 33 34 35 35 36 37 38 39 40 41 41 41 41 42 42 42 42 42 42 42
Wind_Direction
249 247 246 246 245 244 243 242 240 240 242 241 240 239 239 240 239 238 238 239 239 239 239 240 241 241 241 243 244 244 246 247 247 248 249 251 252 254 255 257 258 261 264
250 249 248 247 246 245 243 242 240 241 241 241 240 239 239 239 238 238 238 238 239 239 239 240 241 242 242 242 243 245 246 247 248 249 249 250 252 253 255 256 257 260 263
250 249 248 248 247 245 244 243 243 244 243 241 241 239 238 238 237 237 238 239 239 239 240 240 241 242 243 243 243 244 246 247 248 249 249 250 252 253 254 256 258 260 262
251 250 249 249 248 247 246 244 245 245 244 241 241 238 237 236 236 236 237 239 239 240 241 241 242 242 243 243 244 245 246 247 248 249 249 250 251 253 255 257 259 260 262
252 251 250 249 249 248 248 247 248 248 245 243 241 239 238 237 237 236 236 238 239 239 240 241 243 243 244 244 245 246 247 247 248 248 249 251 252 253 255 257 258 260 261
252 251 251 249 249 249 249 250 250 250 248 245 242 241 239 238 238 238 238 238 238 239 240 241 243 243 244 245 246 247 247 247 248 249 250 251 253 253 254 257 258 259 261
253 252 251 250 250 250 250 250 251 251 248 246 245 244 242 241 240 241 241 239 239 240 241 242 243 244 245 245 246 247 248 248 249 251 252 252 253 254 255 258 259 260 261
255 253 252 252 252 252 252 251 251 250 248 246 245 245 245 245 244 243 242 242 241 241 241 242 244 245 246 245 247 247 247 247 250 251 253 253 254 255 257 258 258 259 261
256 255 255 254 253 253 253 252 250 249 248 246 246 247 247 246 245 244 243 243 242 242 242 243 243 245 245 246 247 247 247 249 250 251 253 254 254 255 257 258 259 260 262
259 257 257 256 255 254 253 251 250 248 248 248 248 248 248 247 247 246 245 244 243 242 242 243 244 245 245 245 246 247 248 249 250 251 252 253 254 255 257 259 259 261 262
261 260 258 257 256 255 253 250 248 249 248 248 248 248 247 247 247 246 246 245 242 242 241 243 244 243 243 244 246 247 248 249 249 251 252 253 253 255 257 260 261 262 264
263 262 261 260 258 256 254 252 250 249 248 248 248 248 247 247 247 247 246 245 244 243 243 243 243 243 243 245 246 248 249 249 250 251 252 252 254 255 257 259 261 264 265
265 263 262 261 259 258 256 254 253 251 249 249 249 249 248 248 248 248 246 246 246 245 244 244 243 243 244 245 246 247 248 248 249 251 251 252 253 255 256 257 260 262 264
266 264 263 262 260 258 256 255 254 252 249 248 248 249 248 248 248 248 247 247 247 246 246 245 244 244 245 244 245 246 246 246 248 250 251 251 252 254 255 256 259 261 263
268 266 264 262 259 257 256 255 253 252 251 249 248 248 248 247 248 249 249 248 248 247 246 246 246 246 246 244 245 245 245 246 248 249 249 251 252 253 254 256 258 260 262
270 267 264 261 258 257 256 255 254 252 250 249 250 249 248 247 247 247 248 248 247 247 247 247 247 246 246 245 245 245 245 246 247 249 250 251 252 253 255 257 258 260 262
271 267 264 262 261 260 259 256 254 253 251 250 248 248 248 247 247 247 247 248 247 247 247 247 247 246 245 245 246 247 247 247 247 249 250 251 252 254 255 257 258 260 262
272 269 266 263 260 260 259 256 254 252 250 249 249 248 248 249 248 247 247 247 248 248 247 247 246 246 245 246 246 246 247 248 249 250 251 252 254 255 256 257 259 260 262
273 271 268 264 261 260 259 257 255 254 252 250 250 250 249 248 248 248 248 247 248 247 246 246 246 245 245 245 246 246 247 249 250 251 252 254 255 256 256 257 258 259 261
273 271 269 266 263 260 259 258 257 256 255 253 252 250 250 250 249 249 247 246 246 246 246 246 246 246 246 246 246 246 247 248 250 251 252 254 256 257 258 258 258 259 261
275 271 268 266 264 262 261 260 259 257 256 254 253 252 252 251 249 248 247 246 246 246 246 246 246 246 246 246 246 246 247 249 250 251 252 254 255 256 257 258 259 260 262
275 272 270 268 266 264 262 260 259 257 256 254 253 252 252 251 249 248 247 247 246 246 245 245 245 245 245 246 246 247 248 249 249 250 252 253 254 256 257 258 259 261 263
277 273 272 271 269 267 265 263 261 259 258 256 254 253 252 250 249 248 247 246 246 247 246 246 246 245 245 246 246 247 249 249 249 251 253 254 254 256 257 258 259 261 262
278 274 272 271 270 268 267 265 262 260 259 257 255 253 252 250 249 249 248 248 248 248 248 248 247 246 246 246 247 248 248 249 250 251 253 253 254 255 255 256 258 259 261
278 274 272 271 270 269 268 267 264 261 260 258 255 253 252 251 249 249 248 249 249 249 249 248 248 247 247 247 248 248 247 247 248 250 251 251 253 254 254 255 257 259 261
279 275 273 272 271 270 267 266 264 262 260 258 256 255 254 253 252 251 250 249 249 250 250 250 249 248 248 248 247 247 246 247 248 249 250 251 251 252 253 254 256 258 260
Height
5586 5589 5593 5596 5600 5604 5608 5613 5617 5622 5626 5631 5636 5641 5646 5652 5657 5663 5669 5675 5680 5686 5691 5696 5702 5707 5712 5717 5721 5725 5730 5734 5739 5743 5747 5750 5754 5757 5760 5762 5764 5766 5768
5575 5578 5581 5585 5589 5592 5596 5600 5604 5609 5614 5618 5622 5628 5633 5638 5644 5650 5656 5662 5668 5673 5679 5684 5690 5695 5700 5705 5710 5714 5719 5723 5727 5731 5736 5739 5743 5746 5749 5752 5754 5756 5758
5563 5566 5570 5573 5577 5581 5584 5588 5592 5596 5601 5605 5610 5615 5619 5625 5631 5637 5643 5649 5654 5660 5666 5672 5677 5682 5687 5692 5697 5702 5707 5711 5715 5720 5724 5728 5732 5735 5738 5741 5743 5745 5747
5552 5555 5558 5562 5565 5569 5573 5576 5580 5584 5588 5592 5597 5601 5606 5612 5618 5624 5630 5636 5642 5647 5653 5659 5664 5670 5675 5680 5685 5690 5695 5699 5703 5708 5712 5717 5720 5723 5726 5729 5732 5734 5737
5541 5544 5547 5551 5554 5557 5561 5565 5568 5572 5575 5579 5584 5589 5594 5599 5605 5611 5617 5623 5629 5635 5640 5646 5651 5657 5663 5667 5673 5678 5682 5687 5691 5695 5700 5704 5708 5712 5715 5718 5720 5723 5725
5531 5533 5537 5540 5543 5547 5550 5554 5557 5560 5563 5566 5571 5576 5581 5586 5591 5597 5603 5609 5615 5621 5627 5633 5639 5644 5650 5655 5660 5665 5670 5675 5679 5683 5688 5692 5696 5700 5703 5705 5708 5711 5714
5521 5523 5526 5529 5532 5536 5539 5542 5545 5548 5551 5554 5558 5563 5568 5573 5578 5583 5589 5595 5601 5608 5614 5619 5625 5631 5636 5641 5646 5651 5657 5662 5667 5671 5675 5679 5683 5687 5690 5693 5696 5698 5701
5510 5513 5515 5518 5521 5524 5526 5529 5532 5535 5539 5543 5547 5551 5556 5561 5565 5570 5575 5580 5587 5594 5600 5606 5612 5617 5622 5627 5632 5638 5643 5648 5654 5658 5663 5667 5670 5673 5676 5680 5682 5685 5687
5500 5502 5504 5506 5509 5511 5514 5517 5520 5523 5527 5530 5534 5538 5543 5548 5552 5556 5561 5566 5572 5579 5585 5591 5597 5603 5609 5614 5619 5624 5630 5634 5639 5644 5648 5652 5656 5659 5662 5665 5668 5671 5674
5490 5491 5493 5494 5497 5499 5502 5504 5507 5510 5514 5518 5521 5526 5530 5534 5538 5542 5547 5552 5559 5565 5570 5576 5583 5589 5594 5598 5604 5609 5615 5620 5625 5629 5634 5638 5641 5645 5648 5651 5654 5657 5659
5480 5481 5482 5483 5485 5487 5489 5492 5495 5498 5501 5505 5509 5513 5517 5521 5525 5529 5533 5538 5544 5550 5555 5561 5567 5573 5579 5584 5589 5595 5600 5606 5610 5615 5619 5623 5627 5630 5634 5637 5640 5643 5645
5469 5470 5471 5472 5474 5475 5477 5480 5483 5486 5489 5492 5496 5500 5503 5507 5511 5515 5519 5524 5529 5534 5541 5547 5552 5558 5563 5569 5574 5580 5585 5590 5595 5600 5604 5608 5612 5616 5620 5623 5625 5628 5630
5459 5460 5461 5462 5463 5464 5466 5468 5471 5473 5476 5479 5483 5487 5490 5494 5498 5502 5506 5510 5514 5520 5525 5532 5537 5543 5548 5554 5559 5565 5569 5574 5579 5584 5589 5593 5597 5601 5605 5608 5610 5612 5615
5449 5449 5450 5451 5452 5453 5454 5456 5458 5461 5464 5467 5471 5474 5478 5481 5485 5489 5492 5496 5501 5505 5511 5516 5522 5527 5532 5538 5544 5549 5554 5559 5564 5569 5574 5578 5582 5586 5589 5592 5595 5597 5600
5439 5439 5439 5440 5441 5442 5444 5446 5447 5450 5452 5456 5459 5462 5466 5470 5473 5476 5479 5484 5488 5492 5497 5502 5507 5512 5517 5523 5529 5534 5539 5544 5549 5554 5558 5562 5566 5570 5574 5577 5579 5582 5584
5429 5429 5430 5430 5431 5432 5434 5436 5437 5439 5441 5444 5447 5450 5453 5457 5460 5463 5466 5470 5474 5478 5483 5488 5493 5498 5503 5509 5514 5519 5524 5529 5533 5538 5542 5546 5550 5554 5558 5561 5563 5566 5568
5419 5419 5420 5420 5421 5423 5424 5425 5427 5429 5430 5433 5435 5438 5441 5445 5448 5451 5454 5458 5462 5466 5470 5475 5479 5485 5490 5495 5500 5504 5509 5514 5518 5523 5527 5531 5534 5538 5541 5544 5547 5549 5552
5410 5410 5410 5411 5411 5412 5413 5415 5416 5418 5421 5422 5425 5427 5430 5433 5436 5439 5443 5446 5449 5453 5457 5462 5466 5471 5475 5480 5485 5490 5494 5499 5503 5507 5511 5515 5518 5522 5525 5528 5531 5533 5536
5400 5400 5400 5401 5401 5402 5403 5404 5406 5407 5410 5412 5414 5417 5419 5422 5424 5427 5430 5434 5438 5441 5445 5449 5453 5457 5462 5466 5471 5475 5480 5484 5488 5492 5495 5499 5502 5505 5508 5511 5514 5516 5519
5392 5391 5391 5391 5392 5392 5393 5395 5396 5397 5399 5401 5404 5406 5408 5411 5413 5416 5419 5422 5426 5429 5433 5436 5440 5444 5448 5453 5457 5461 5465 5469 5473 5476 5480 5483 5486 5490 5493 5495 5498 5501 5503
5383 5383 5382 5382 5383 5383 5384 5385 5386 5387 5389 5391 5393 5396 5398 5400 5403 5405 5408 5411 5414 5418 5421 5424 5428 5431 5435 5439 5443 5447 5451 5455 5458 5461 5465 5468 5471 5475 5477 5480 5483 5485 5488
5376 5375 5375 5374 5374 5374 5375 5375 5376 5378 5379 5381 5383 5385 5387 5389 5392 5395 5397 5400 5403 5406 5409 5412 5415 5418 5422 5426 5429 5433 5436 5440 5444 5447 5451 5454 5457 5460 5463 5466 5469 5471 5473
5368 5367 5367 5366 5366 5366 5367 5367 5368 5369 5370 5371 5373 5375 5377 5379 5382 5384 5387 5389 5392 5394 5397 5400 5403 5406 5409 5412 5416 5419 5423 5427 5430 5434 5437 5440 5443 5446 5449 5452 5455 5457 5459
5360 5360 5359 5358 5358 5358 5359 5359 5359 5360 5361 5362 5364 5366 5368 5370 5372 5374 5376 5379 5381 5383 5386 5388 5391 5394 5397 5400 5403 5407 5410 5413 5417 5420 5423 5426 5429 5432 5436 5438 5441 5443 5445
5353 5352 5351 5351 5351 5351 5351 5351 5351 5352 5353 5354 5355 5357 5358 5360 5362 5364 5366 5368 5371 5373 5375 5378 5380 5383 5385 5388 5391 5394 5398 5401 5404 5407 5410 5413 5416 5419 5422 5425 5428 5430 5432
5346 5345 5344 5344 5343 5343 5343 5343 5343 5344 5345 5346 5347 5348 5349 5351 5352 5354 5356 5359 5361 5363 5365 5367 5370 5372 5374 5377 5380 5383 5386 5389 5392 5395 5398 5401 5404 5407 5410 5412 5415 5417 5419